TimeCDT,TemperatureF,Dew PointF,Humidity,Sea Level PressureIn,VisibilityMPH,Wind Direction,Wind SpeedMPH,Gust SpeedMPH,PrecipitationIn,Events,Conditions,WindDirDegrees,DateUTC
12:15 AM,73.4,68.0,83,30.00,10.0,South,5.8,-,N/A,,Scattered Clouds,170,2013-10-05 05:15:00
12:35 AM,73.4,68.0,83,30.00,10.0,South,4.6,-,N/A,,Mostly Cloudy,170,2013-10-05 05:35:00
12:55 AM,73.4,68.0,83,30.00,10.0,South,6.9,-,N/A,,Scattered Clouds,190,2013-10-05 05:55:00
1:15 AM,73.4,66.2,78,30.00,10.0,South,4.6,-,N/A,,Clear,180,2013-10-05 06:15:00
1:35 AM,73.4,66.2,78,30.00,10.0,South,5.8,-,N/A,,Clear,190,2013-10-05 06:35:00
1:55 AM,73.4,66.2,78,30.00,10.0,South,4.6,-,N/A,,Clear,180,2013-10-05 06:55:00
2:15 AM,73.4,66.2,78,30.00,10.0,South,3.5,-,N/A,,Clear,190,2013-10-05 07:15:00
2:35 AM,71.6,66.2,83,30.00,10.0,South,4.6,-,N/A,,Clear,180,2013-10-05 07:35:00
2:55 AM,71.6,66.2,83,30.00,10.0,South,4.6,-,N/A,,Clear,170,2013-10-05 07:55:00
3:15 AM,71.6,66.2,83,29.99,10.0,South,4.6,-,N/A,,Scattered Clouds,180,2013-10-05 08:15:00
3:35 AM,71.6,66.2,83,29.99,10.0,South,4.6,-,N/A,,Mostly Cloudy,190,2013-10-05 08:35:00
3:55 AM,71.6,66.2,83,29.99,7.0,South,3.5,-,N/A,,Scattered Clouds,180,2013-10-05 08:55:00
4:15 AM,71.6,66.2,83,29.99,10.0,Calm,Calm,-,N/A,,Clear,0,2013-10-05 09:15:00
4:35 AM,71.6,66.2,83,29.99,10.0,Calm,Calm,-,N/A,,Scattered Clouds,0,2013-10-05 09:35:00
4:55 AM,71.6,66.2,83,29.98,10.0,SSE,3.5,-,N/A,,Scattered Clouds,160,2013-10-05 09:55:00
5:15 AM,71.6,66.2,83,29.99,10.0,South,3.5,-,N/A,,Scattered Clouds,170,2013-10-05 10:15:00
5:35 AM,71.6,66.2,83,29.98,10.0,South,4.6,-,N/A,,Scattered Clouds,180,2013-10-05 10:35:00
5:55 AM,71.6,66.2,83,29.98,10.0,South,4.6,-,N/A,,Scattered Clouds,180,2013-10-05 10:55:00
6:15 AM,71.6,66.2,83,29.98,10.0,South,3.5,-,N/A,,Mostly Cloudy,170,2013-10-05 11:15:00
6:35 AM,71.6,66.2,83,29.98,10.0,South,3.5,-,N/A,,Mostly Cloudy,170,2013-10-05 11:35:00
6:55 AM,73.4,66.2,78,29.99,10.0,South,5.8,-,N/A,,Mostly Cloudy,190,2013-10-05 11:55:00
7:15 AM,71.6,66.2,83,29.98,10.0,South,4.6,-,N/A,,Mostly Cloudy,190,2013-10-05 12:15:00
7:35 AM,71.6,66.2,83,29.98,7.0,South,3.5,-,N/A,,Mostly Cloudy,180,2013-10-05 12:35:00
7:55 AM,73.4,66.2,78,29.98,7.0,South,5.8,-,N/A,,Mostly Cloudy,190,2013-10-05 12:55:00
8:15 AM,73.4,68.0,83,29.98,10.0,South,5.8,-,N/A,,Overcast,180,2013-10-05 13:15:00
8:35 AM,73.4,68.0,83,29.98,10.0,South,6.9,-,N/A,,Mostly Cloudy,170,2013-10-05 13:35:00
8:55 AM,73.4,68.0,83,29.98,10.0,South,6.9,-,N/A,,Scattered Clouds,180,2013-10-05 13:55:00
9:15 AM,73.4,68.0,83,29.99,10.0,SSW,8.1,-,N/A,Thunderstorm,Scattered Clouds,200,2013-10-05 14:15:00
9:35 AM,73.4,68.0,83,30.00,10.0,South,8.1,-,N/A,Thunderstorm,Overcast,190,2013-10-05 14:35:00
9:55 AM,73.4,68.0,83,30.00,10.0,SSW,9.2,-,N/A,Thunderstorm,Overcast,200,2013-10-05 14:55:00
10:15 AM,73.4,66.2,78,29.99,10.0,SSW,11.5,-,N/A,Rain-Thunderstorm,Light Thunderstorms and Rain,200,2013-10-05 15:15:00
10:55 AM,73.4,68.0,83,29.99,10.0,South,11.5,-,0.01,Thunderstorm,Mostly Cloudy,190,2013-10-05 15:55:00
11:15 AM,73.4,68.0,83,29.99,10.0,South,6.9,-,N/A,,Mostly Cloudy,180,2013-10-05 16:15:00
12:15 PM,75.2,69.8,83,29.97,10.0,South,6.9,-,N/A,,Mostly Cloudy,180,2013-10-05 17:15:00
12:35 PM,75.2,69.8,83,29.96,10.0,South,6.9,-,N/A,Thunderstorm,Mostly Cloudy,180,2013-10-05 17:35:00
12:55 PM,75.2,69.8,83,29.94,10.0,SSE,5.8,-,N/A,,Overcast,160,2013-10-05 17:55:00
1:15 PM,78.8,69.8,74,29.93,10.0,SSE,8.1,-,N/A,,Mostly Cloudy,160,2013-10-05 18:15:00
1:35 PM,80.6,69.8,70,29.92,10.0,South,16.1,-,N/A,,Mostly Cloudy,190,2013-10-05 18:35:00
2:55 PM,80.6,69.8,70,29.89,10.0,South,8.1,-,N/A,Thunderstorm,Mostly Cloudy,180,2013-10-05 19:55:00
3:15 PM,80.6,68.0,65,29.90,10.0,SSW,9.2,-,N/A,Thunderstorm,Mostly Cloudy,200,2013-10-05 20:15:00
3:35 PM,69.8,64.4,83,29.93,2.5,West,8.1,33.4,0.13,Rain-Thunderstorm,Heavy Thunderstorms and Rain,260,2013-10-05 20:35:00
3:55 PM,69.8,62.6,78,29.94,7.0,WSW,17.3,24.2,0.18,Rain-Thunderstorm,Light Thunderstorms and Rain,240,2013-10-05 20:55:00
4:15 PM,68.0,62.6,83,29.92,10.0,SSW,4.6,-,0.20,Rain-Thunderstorm,Thunderstorms and Rain,210,2013-10-05 21:15:00
4:35 PM,69.8,62.6,78,29.92,10.0,SSW,4.6,-,0.25,Rain,Rain,210,2013-10-05 21:35:00
4:55 PM,69.8,62.6,78,29.91,10.0,SSW,5.8,-,0.29,Rain,Rain,210,2013-10-05 21:55:00
5:15 PM,69.8,62.6,78,29.93,10.0,SW,6.9,-,0.02,Rain-Thunderstorm,Thunderstorms and Rain,220,2013-10-05 22:15:00
5:35 PM,69.8,64.4,83,29.92,10.0,SSW,4.6,-,0.09,Rain-Thunderstorm,Rain,200,2013-10-05 22:35:00
5:55 PM,69.8,64.4,83,29.92,10.0,South,4.6,-,0.14,Rain,Rain,180,2013-10-05 22:55:00
6:15 PM,69.8,64.4,83,29.92,10.0,South,9.2,-,0.03,Rain,Rain,180,2013-10-05 23:15:00
6:35 PM,69.8,64.4,83,29.92,10.0,South,8.1,-,0.04,Rain,Light Rain,170,2013-10-05 23:35:00
6:55 PM,69.8,62.6,78,29.91,10.0,South,8.1,-,0.04,,Clear,180,2013-10-05 23:55:00
7:15 PM,68.0,62.6,83,29.90,10.0,South,5.8,-,N/A,Thunderstorm,Clear,180,2013-10-06 00:15:00
7:35 PM,68.0,62.6,83,29.89,10.0,South,4.6,-,N/A,,Clear,180,2013-10-06 00:35:00
7:55 PM,68.0,62.6,83,29.88,10.0,South,4.6,-,N/A,,Clear,180,2013-10-06 00:55:00
8:35 PM,68.0,62.6,83,29.88,10.0,SSE,3.5,-,N/A,,Clear,150,2013-10-06 01:35:00
8:55 PM,68.0,62.6,83,29.88,10.0,SSE,4.6,-,N/A,,Scattered Clouds,160,2013-10-06 01:55:00
9:35 PM,69.8,64.4,83,29.88,10.0,Calm,Calm,-,0.01,Rain,Light Rain,0,2013-10-06 02:35:00
9:55 PM,69.8,64.4,83,29.90,7.0,West,4.6,-,0.11,Rain-Thunderstorm,Heavy Thunderstorms and Rain,260,2013-10-06 02:55:00
10:55 PM,68.0,62.6,83,29.84,7.0,Calm,Calm,-,0.39,Rain,Heavy Rain,0,2013-10-06 03:55:00